Regional Weather Roundup
Issued by NWS

Home | Current Version | Previous Version | Graphics & Text | Print | Product List | Glossary On
Versions: 1 2 3 4 5 6 7 8 9 10 11 12 13 14 15 16 17 18 19 20 21 22 23 24 25 26 27 28 29 30 31 32 33 34 35 36 37 38 39 40 41 42 43 44 45 46 47 48 49 50
000
ASUS43 KTOP 030359
RWRKS

WEATHER ROUNDUP FOR KANSAS
NATIONAL WEATHER SERVICE GOODLAND KS
1100 PM CDT WED SEP 02 2015

NOTE:  "FAIR" INDICATES FEW OR NO CLOUDS BELOW 12,000 FEET WITH NO
SIGNIFICANT WEATHER AND/OR OBSTRUCTIONS TO VISIBILITY.

KSZ001>006-013>018-027>032-041>047-030500-
NORTHWEST KANSAS

CITY           SKY/WX    TMP DP  RH WIND       PRES   REMARKS
GOODLAND       MOCLDY    71  53  52 SW8       29.91R
HAYS           PTCLDY    84  57  39 S15       29.86R
HILL CITY      FAIR      85  56  37 S14G21    29.85R
RUSSELL        PTCLDY    84  59  42 S15       29.85R
$$

KSZ061>065-074>080-084>089-030500-
SOUTHWEST KANSAS

CITY           SKY/WX    TMP DP  RH WIND       PRES   REMARKS
DODGE CITY     MOCLDY    80  56  43 S16       29.92R
ELKHART          N/A     74  55  51 S9          N/A
GARDEN CITY    MOCLDY    78  57  48 S13       29.91R
GREAT BEND     PTCLDY    81  61  50 S12       29.88R
LIBERAL        PTCLDY    79  54  41 S12       29.96R
$$

KSZ066>073-081>083-090>101-030500-
SOUTHEAST KANSAS

CITY           SKY/WX    TMP DP  RH WIND       PRES   REMARKS
CHANUTE        CLEAR     74  69  85 SE7       29.97S
COFFEYVILLE    CLEAR     75  69  81 S8        29.96S
HUTCHINSON     CLEAR     80  62  54 S15       29.91R
NEWTON         CLEAR     77  63  61 S13       29.96R
PARSONS        CLEAR     74  69  85 SE3       29.98R
WICHITA INTL   PTCLDY    79  66  64 S13       29.93R
WICHITA JABRA  CLEAR     79  66  64 S15       29.93S
WICHITA MCCONL CLEAR     79  65  63 SE13      29.93S
WINFIELD       CLEAR     78  67  68 SE12      29.95S
$$

KSZ007>012-019>026-033>040-048>060-102>105-030500-
NORTHEAST KANSAS

CITY           SKY/WX    TMP DP  RH WIND       PRES   REMARKS
CONCORDIA      CLEAR     80  65  59 S15G24    29.87R
EMPORIA        CLEAR     75  68  78 S10       29.95R
LAWRENCE       CLEAR     74  70  87 SE6       29.95R
MANHATTAN      CLEAR     80  68  66 S9        29.90R
OLATHE IND     CLEAR     73  69  87 S6        29.97S
OLATHE EXE     CLEAR     73  68  84 S5        29.97R
SALINA         CLEAR     82  64  54 S17       29.88R
TOPEKA BILLARD CLEAR     79  69  71 S10       29.93S
TOPEKA FORBES  CLEAR     78  69  73 S8        29.94S
$$


USA.gov is the U.S. government's official web portal to all federal, state and local government web resources and services.